User: anonymous
Location: Ottawa
(45.4170°N, 75.7000°W)
Time: 06:50:32
(UTC-04:00)
Language:

Aureole 3 Rocket - Orbit

View from above orbital plane
View from above orbital plane
View from above satellite
View from above satellite

Ground track
Ground track

The orbit data is extracted from the following two-line orbital elements,

1 12849U 81094B   14238.11175516  .00000749  00000-0  70909-4 0  9653
2 12849 082.4919 233.2587 0910140 291.0193 059.5987 13.48229277603534
Epoch (UTC): 26 August 2014 02:40:55
Eccentricity: 0.0910140
inclination: 82.4919°
perigee height: 400 km
apogee height: 1757 km
right ascension of ascending node: 233.2587°
argument of perigee: 291.0193°
revolutions per day: 13.48229277
mean anomaly at epoch: 59.5987°
orbit number at epoch: 60353

The dashed part of the orbit path shows where the satellite is in the earth's shadow,  

DLR